Location: Potomac
(46.8816°N, 113.5795°W)
Time: 07:23:32
(UTC+00:00)

NANOSAT C BR1 - Pass Details

Date: 02 July 2022
Orbit: 584 x 599 km, 98.0° (Epoch: 09 August)

Event Time Altitude Azimuth Distance (km) Brightness Sun altitude
Rises 10:58:04 0° 360° (N) 2,850 ? -6.9°
Reaches altitude 10° 11:00:42 10° 343° (NNW) 1,945 ? -6.6°
Maximum altitude 11:03:43 20° 297° (WNW) 1,423 ? -6.2°
Drops below altitude 10° 11:06:45 10° 251° (WSW) 1,940 ? -5.8°
Enters shadow 11:07:45 - 243° (WSW) 2,262 ? -5.7°
